TimeCST,TemperatureF,Dew PointF,Humidity,Sea Level PressureIn,VisibilityMPH,Wind Direction,Wind SpeedMPH,Gust SpeedMPH,PrecipitationIn,Events,Conditions,WindDirDegrees,DateUTC
12:00 AM,70,67,88,30.07,12,WSW,4.6,,,,Scattered Clouds,250,2012-11-18 06:00:00
3:00 AM,67,65,90,30.07,12,West,4.6,,,,Scattered Clouds,280,2012-11-18 09:00:00
5:00 AM,66.2,64.4,94,30.06,6.2,West,4.6,-,N/A,,Partly Cloudy,270,2012-11-18 11:00:00
6:00 AM,65,64,96,30.09,12,West,6.9,,,,Scattered Clouds,280,2012-11-18 12:00:00
6:00 AM,64.4,64.4,100,30.06,6.2,West,6.9,-,N/A,,Partly Cloudy,280,2012-11-18 12:00:00
7:00 AM,66.2,64.4,94,30.09,6.2,West,6.9,-,N/A,,Partly Cloudy,280,2012-11-18 13:00:00
8:00 AM,69.8,66.2,88,30.09,6.2,WNW,9.2,-,N/A,,Partly Cloudy,290,2012-11-18 14:00:00
9:00 AM,74,68,75,30.13,16,NW,8.1,,,,Scattered Clouds,320,2012-11-18 15:00:00
9:00 AM,75.2,68.0,78,30.13,6.2,NW,8.1,-,N/A,,Partly Cloudy,320,2012-11-18 15:00:00
10:00 AM,77.0,68.0,74,30.12,6.2,NW,10.4,-,N/A,,Scattered Clouds,310,2012-11-18 16:00:00
11:00 AM,78.8,66.2,65,30.09,6.2,WNW,8.1,-,N/A,,Mostly Cloudy,300,2012-11-18 17:00:00
12:00 PM,80.6,66.2,61,30.07,6.2,NW,9.2,-,N/A,,Mostly Cloudy,320,2012-11-18 18:00:00
1:00 PM,80.6,64.4,58,30.04,6.2,NW,9.2,-,N/A,Rain,Light Rain Showers,310,2012-11-18 19:00:00
2:00 PM,82.4,66.2,58,30.02,6.2,North,6.9,-,N/A,,Scattered Clouds,350,2012-11-18 20:00:00
3:00 PM,83,63,41,30.02,16,WNW,10.4,,,,Partly Cloudy,300,2012-11-18 21:00:00
3:00 PM,82.4,62.6,51,30.01,6.2,WNW,10.4,-,N/A,,Scattered Clouds,300,2012-11-18 21:00:00
4:00 PM,80.6,68.0,65,30.02,6.2,East,4.6,-,N/A,,Scattered Clouds,80,2012-11-18 22:00:00
5:00 PM,78.8,68.0,69,30.03,6.2,ENE,5.8,-,N/A,,Scattered Clouds,60,2012-11-18 23:00:00
6:00 PM,77,69,71,30.06,12,Calm,Calm,,,,Partly Cloudy,,2012-11-19 00:00:00
6:00 PM,77.0,69.8,78,30.05,6.2,Calm,Calm,-,N/A,,Scattered Clouds,0,2012-11-19 00:00:00
9:00 PM,72,68,84,30.10,12,Calm,Calm,,,,Partly Cloudy,,2012-11-19 03:00:00